Walla Walla, WA
on Tuesday, February 12, 2013

Tuesday
Previous Day Next Day
Daily Summary
 ActualAverage (KPDT)Record (KPDT)
Temperature
Mean Temperature °F 38°F  
Max Temperature 52°F 46°F 68°F (1977)
Min Temperature 39°F 30°F -10°F (1929)
Degree Days
Heating Degree Days 20 27  
Month to date heating degree days 331  
Since 1 July heating degree days 3489  
Cooling Degree Days 0 0  
Month to date cooling degree days 0  
Year to date cooling degree days 0  
Moisture
Dew Point 36°F   
Average Humidity 68    
Maximum Humidity 79    
Minimum Humidity 54    
Precipitation
Precipitation 0.00 in 0.04 in 0.76 in (1936)
Month to date precipitation 0.47  
Year to date precipitation 1.90  
Snow
Snow 0.00 in 0.10 in 7.00 in (1936)
Month to date snowfall 1.5  
Year to date snowfall 5.2  
Since 1 July snowfall 12.7  
Snow Depth in   
Wind
Wind Speed 12 mph   
Max Wind Speed 21 mph   
Max Gust Speed 26 mph   
Visibility 10 miles   
Events     

Key: T is trace of precipitation, MM is missing value
Source: NWS Daily Summary
Time(PST)TemperatureDew PointHumidity Pressure Visibility Wind DirectionWind SpeedGust SpeedPrecipitationEvents Conditions
12:53 AM 41.0°F 34.0°F 76% 30.28 in 10.0 miles South 12.7 mph - N/A   Mostly Cloudy
1:53 AM 39.9°F 34.0°F 79% 30.30 in 10.0 miles South 10.4 mph - N/A   Clear
2:53 AM 39.0°F 33.1°F 79% 30.31 in 10.0 miles South 11.5 mph - N/A   Clear
3:53 AM 39.9°F 34.0°F 79% 30.31 in 10.0 miles South 9.2 mph - N/A   Scattered Clouds
4:53 AM 39.9°F 34.0°F 79% 30.32 in 10.0 miles South 10.4 mph - N/A   Overcast
5:53 AM 42.1°F 34.0°F 73% 30.32 in 10.0 miles SSW 10.4 mph - N/A   Overcast
6:53 AM 42.1°F 34.0°F 73% 30.34 in 10.0 miles South 9.2 mph - N/A   Overcast
7:53 AM 43.0°F 35.1°F 74% 30.35 in 10.0 miles South 8.1 mph - N/A   Overcast
8:53 AM 44.1°F 36.0°F 73% 30.37 in 10.0 miles SSW 8.1 mph - N/A   Overcast
9:53 AM 46.0°F 37.0°F 71% 30.37 in 10.0 miles SSW 11.5 mph - N/A   Overcast
10:53 AM 48.9°F 39.0°F 69% 30.36 in 10.0 miles SSW 13.8 mph - N/A   Partly Cloudy
11:53 AM 51.1°F 37.0°F 59% 30.34 in 10.0 miles SSW 20.7 mph - N/A   Clear
12:53 PM 52.0°F 37.9°F 59% 30.34 in 10.0 miles SW 15.0 mph 24.2 mph N/A   Mostly Cloudy
1:53 PM 50.0°F 39.0°F 66% 30.35 in 10.0 miles SSW 11.5 mph - N/A   Overcast
2:53 PM 51.1°F 39.9°F 66% 30.34 in 10.0 miles SSW 8.1 mph - N/A   Overcast
3:53 PM 51.1°F 39.0°F 63% 30.33 in 10.0 miles SSW 13.8 mph - N/A   Overcast
4:53 PM 50.0°F 39.0°F 66% 30.32 in 10.0 miles South 12.7 mph - N/A   Overcast
5:53 PM 50.0°F 37.9°F 63% 30.32 in 10.0 miles SSW 12.7 mph - N/A   Overcast
6:53 PM 50.0°F 37.0°F 61% 30.32 in 10.0 miles SSW 16.1 mph - N/A   Mostly Cloudy
7:53 PM 48.0°F 36.0°F 63% 30.33 in 10.0 miles SSW 16.1 mph 26.5 mph N/A   Mostly Cloudy
8:53 PM 48.0°F 36.0°F 63% 30.32 in 10.0 miles South 19.6 mph - N/A   Mostly Cloudy
9:53 PM 48.0°F 36.0°F 63% 30.32 in 10.0 miles SSW 15.0 mph - N/A   Overcast
10:53 PM 48.9°F 36.0°F 61% 30.31 in 10.0 miles SW 15.0 mph - N/A   Overcast
11:53 PM 50.0°F 34.0°F 54% 30.30 in 10.0 miles SSW 16.1 mph - N/A   Overcast
Moon Phase
Feb. 12 Feb. 17 Feb. 25 Mar. 04 Mar. 11
Sunrise:07:00 AM (PST) Moon Rise:07:47 AM (PST)2/12
Sunset:05:15 PM (PST) Moon Set:08:35 PM (PST)2/12

Copyright © 2014 The Weather Underground, Inc.